N8QYG-1 Weather Reports


Display with metric or nautical units.
time (UTC)temp
F
wind
direction
speed
MPH
gust
MPH
rain 1hr
in
rain 24hr
in
rain mn
in
humidity
%
barometer
mb
20260510230018 59 261 4.0 4.0 0.00 0.00 0.00 3 1015.2
20260510225018 58 314 7.0 8.0 0.00 0.00 0.00 3 1015.1
20260510224018 59 279 3.0 5.0 0.00 0.00 0.00 3 1015.0
20260510222018 59 313 6.0 6.0 0.00 0.00 0.00 3 1014.9
20260510221019 60 308 4.0 4.0 0.00 0.00 0.00 3 1014.7
20260510215019 61 277 7.0 8.0 0.00 0.00 0.00 2 1014.6
20260510214017 60 334 5.0 7.0 0.00 0.00 0.00 3 1014.3
20260510212018 61 269 7.0 8.0 0.00 0.00 0.00 2 1014.2
20260510211018 59 316 5.0 5.0 0.00 0.00 0.00 3 1014.2
20260510210017 60 0 3.0 7.0 0.00 0.00 0.00 3 1014.2
20260510205018 59 254 9.0 12.0 0.00 0.00 0.00 3 1014.1
20260510204018 61 338 8.0 8.0 0.00 0.00 0.00 3 1014.2
20260510203018 61 303 11.0 12.0 0.00 0.00 0.00 3 1014.2
20260510202018 63 215 4.0 6.0 0.00 0.00 0.00 3 1014.5
20260510201018 62 280 7.0 7.0 0.00 0.00 0.00 3 1014.5
20260510200019 60 296 4.0 4.0 0.00 0.00 0.00 3 1014.5
20260510195019 62 306 4.0 9.0 0.00 0.00 0.00 2 1014.6
20260510194018 61 348 1.0 3.0 0.00 0.00 0.00 3 1014.6
20260510193019 60 326 4.0 4.0 0.00 0.00 0.00 2 1014.6
20260510192018 61 311 13.0 13.0 0.00 0.00 0.00 3 1014.7
20260510191019 62 303 3.0 3.0 0.00 0.00 0.00 3 1014.7
20260510190018 62 310 7.0 9.0 0.00 0.00 0.00 3 1014.7
20260510185018 59 5 3.0 6.0 0.00 0.00 0.00 3 1014.7
20260510184019 61 321 6.0 7.0 0.00 0.00 0.00 3 1014.5
20260510183020 60 279 3.0 9.0 0.00 0.00 0.00 3 1014.5
20260510182019 60 288 3.0 4.0 0.00 0.00 0.00 3 1014.4
20260510181018 61 277 3.0 7.0 0.00 0.00 0.00 3 1014.4
20260510180017 61 14 4.0 6.0 0.00 0.00 0.00 3 1014.4
20260510175019 59 215 5.0 7.0 0.00 0.00 0.00 3 1014.3
20260510174018 59 259 3.0 7.0 0.00 0.00 0.00 3 1014.2
20260510173018 60 309 8.0 8.0 0.00 0.00 0.00 3 1014.2
20260510172018 59 322 4.0 4.0 0.00 0.00 0.00 3 1014.3
20260510171018 58 258 9.0 12.0 0.00 0.00 0.00 3 1014.4
20260510170018 59 299 4.0 4.0 0.00 0.00 0.00 3 1014.4
20260510165018 59 315 4.0 5.0 0.00 0.00 0.00 3 1014.6
20260510164019 59 205 2.0 4.0 0.00 0.00 0.00 3 1014.6
20260510163020 58 253 7.0 9.0 0.00 0.00 0.00 3 1014.6
20260510162017 59 28 5.0 10.0 0.00 0.00 0.00 3 1014.5
20260510161019 58 309 3.0 4.0 0.00 0.00 0.00 3 1014.2
20260510160018 58 18 16.0 16.0 0.00 0.00 0.00 3 1014.2
20260510155021 58 296 4.0 8.0 0.00 0.00 0.00 3 1014.0
20260510154018 57 315 7.0 8.0 0.00 0.00 0.00 3 1014.0
20260510153021 57 328 4.0 6.0 0.00 0.00 0.00 4 1014.0
20260510152018 56 290 4.0 5.0 0.00 0.00 0.00 3 1013.8
20260510151020 56 321 2.0 3.0 0.00 0.00 0.00 3 1013.8
20260510150018 56 16 5.0 7.0 0.00 0.00 0.00 3 1013.8
20260510145019 56 5 3.0 6.0 0.00 0.00 0.00 3 1013.6
20260510144019 55 36 6.0 6.0 0.00 0.00 0.00 4 1013.6
20260510143019 54 286 6.0 6.0 0.00 0.00 0.00 4 1013.6
20260510141019 52 327 5.0 5.0 0.00 0.00 0.00 4 1013.5
20260510140018 52 286 2.0 2.0 0.00 0.00 0.00 4 1013.5
20260510135019 51 355 3.0 4.0 0.00 0.00 0.00 4 1013.5
20260510134021 50 35 2.0 3.0 0.00 0.00 0.00 4 1013.5
20260510133020 50 290 2.0 5.0 0.00 0.00 0.00 5 1013.5
20260510132018 49 347 3.0 3.0 0.00 0.00 0.00 5 1013.3
20260510131020 49 355 2.0 2.0 0.00 0.00 0.00 5 1013.0
20260510130018 48 319 1.0 2.0 0.00 0.00 0.00 5 1013.0
20260510125020 48 0 0.0 1.0 0.00 0.00 0.00 5 1013.0
20260510124018 47 13 2.0 6.0 0.00 0.00 0.00 5 1012.8
20260510123019 47 19 3.0 3.0 0.00 0.00 0.00 5 1012.8
20260510122019 46 0 0.0 1.0 0.00 0.00 0.00 5 1012.6
20260510121019 45 334 2.0 3.0 0.00 0.00 0.00 5 1012.5
20260510114018 43 340 2.0 2.0 0.00 0.00 0.00 6 1012.0
20260510113020 42 334 1.0 3.0 0.00 0.00 0.00 6 1012.0
20260510112018 41 344 2.0 3.0 0.00 0.00 0.00 7 1011.8
20260510111019 40 0 0.0 0.0 0.00 0.00 0.00 7 1011.4
20260510110018 39 0 0.0 0.0 0.00 0.00 0.00 7 1011.4
20260510105018 39 80 1.0 1.0 0.00 0.00 0.00 7 1011.4
20260510104018 39 0 0.0 1.0 0.00 0.00 0.00 7 1011.3
20260510103019 39 0 0.0 0.0 0.00 0.00 0.00 7 1011.3
20260510102018 40 0 0.0 0.0 0.00 0.00 0.00 6 1010.9
20260510101020 40 0 0.0 0.0 0.00 0.00 0.00 6 1010.8
20260510100019 41 0 0.0 0.0 0.00 0.00 0.00 6 1010.8
20260510095020 42 0 0.0 0.0 0.00 0.00 0.00 6 1010.8
20260510094020 42 0 0.0 0.0 0.00 0.00 0.00 6 1010.8
20260510093019 43 0 0.0 2.0 0.00 0.00 0.00 6 1010.8
20260510092018 44 333 2.0 4.0 0.00 0.00 0.00 6 1010.5
20260510091019 45 322 1.0 1.0 0.00 0.00 0.00 6 1010.3
20260510090018 45 321 2.0 2.0 0.00 0.00 0.00 5 1010.3
20260510085019 45 0 6.0 7.0 0.00 0.00 0.00 5 1009.8
20260510084020 46 355 3.0 3.0 0.00 0.00 0.00 5 1009.3
20260510083019 46 0 4.0 4.0 0.00 0.00 0.00 5 1009.3
20260510082018 46 26 6.0 6.0 0.00 0.00 0.00 5 1009.1
20260510081018 46 322 3.0 4.0 0.00 0.00 0.00 5 1008.7
20260510080019 47 24 4.0 8.0 0.00 0.00 0.00 6 1008.7
20260510075019 47 344 1.0 1.0 0.00 0.00 0.00 6 1008.1
20260510074017 48 5 3.0 4.0 0.00 0.00 0.00 6 1007.8
20260510072018 47 322 6.0 8.0 0.00 0.00 0.00 6 1007.6
20260510071019 47 16 2.0 2.0 0.00 0.00 0.00 6 1007.2
20260510070019 47 21 1.0 1.0 0.00 0.00 0.00 6 1007.2
20260510065018 47 5 2.0 4.0 0.00 0.00 0.00 6 1007.2
20260510064018 47 320 2.0 2.0 0.00 0.00 0.00 7 1007.2
20260510063020 47 309 1.0 2.0 0.00 0.00 0.00 6 1007.2
20260510062018 47 309 1.0 1.0 0.00 0.00 0.00 6 1007.1
20260510061018 47 306 1.0 2.0 0.00 0.00 0.00 6 1007.0
20260510055019 48 306 1.0 1.0 0.00 0.00 0.00 6 1006.8
20260510054017 48 0 0.0 1.0 0.00 0.00 0.00 6 1006.6
20260510053021 49 0 0.0 0.0 0.00 0.00 0.00 6 1006.6
20260510052019 50 0 0.0 0.0 0.00 0.00 0.00 6 1006.1
20260510051020 51 0 0.0 0.0 0.00 0.00 0.00 5 1005.8
20260510045018 53 306 1.0 1.0 0.00 0.00 0.00 5 1005.6
20260510044020 53 0 0.0 0.0 0.00 0.00 0.00 5 1005.5
20260510043019 54 305 2.0 2.0 0.00 0.00 0.00 5 1005.5
20260510042018 55 0 0.0 0.0 0.00 0.00 0.00 5 1005.3
20260510041019 55 329 3.0 3.0 0.00 0.00 0.00 5 1005.1
20260510040018 56 350 5.0 6.0 0.00 0.00 0.00 5 1005.1
20260510035019 57 296 2.0 3.0 0.00 0.00 0.00 4 1005.0
20260510034018 57 326 2.0 4.0 0.00 0.00 0.00 4 1004.7
20260510033018 57 344 6.0 8.0 0.00 0.00 0.00 4 1004.7
20260510032018 58 331 3.0 6.0 0.00 0.00 0.00 4 1004.5
20260510031022 58 10 6.0 10.0 0.00 0.00 0.00 4 1004.1
20260510030018 59 345 8.0 10.0 0.00 0.00 0.00 4 1004.1
20260510025018 59 327 11.0 12.0 0.00 0.00 0.00 4 1003.9
20260510024018 60 29 3.0 6.0 0.00 0.00 0.00 4 1003.5
20260510023019 61 333 3.0 4.0 0.00 0.00 0.00 4 1003.5
20260510022017 62 37 5.0 6.0 0.00 0.00 0.00 4 1002.9
20260510021019 62 16 1.0 6.0 0.00 0.00 0.00 4 1002.4
20260510020020 62 355 1.0 4.0 0.00 0.00 0.00 4 1002.4
20260510015019 62 355 4.0 7.0 0.00 0.00 0.00 4 1002.0
20260510014019 61 324 6.0 11.0 0.00 0.00 0.00 5 1001.5
20260510013021 60 277 2.0 4.0 0.00 0.00 0.00 5 1001.5
20260510012019 61 0 0.0 1.0 0.00 0.00 0.00 5 1000.9
20260510011019 62 0 0.0 1.0 0.00 0.00 0.00 4 1000.8
20260510010020 63 271 1.0 2.0 0.00 0.00 0.00 4 1000.8
20260510005018 64 271 1.0 1.0 0.00 0.00 0.00 4 1000.6
20260510004018 65 271 1.0 2.0 0.00 0.00 0.00 4 1000.3
20260510003020 65 264 3.0 3.0 0.00 0.00 0.00 4 1000.3
20260510002018 66 261 7.0 7.0 0.00 0.00 0.00 3 1000.3
20260510001020 67 207 2.0 5.0 0.00 0.00 0.00 3 1000.0
20260510000019 67 265 4.0 4.0 0.00 0.00 0.00 3 1000.0
20260509235019 67 255 4.0 5.0 0.00 0.00 0.00 3 999.9
20260509234018 68 268 8.0 9.0 0.00 0.00 0.00 3 999.8
20260509233020 68 275 4.0 8.0 0.00 0.00 0.00 3 999.8
20260509232019 69 275 11.0 11.0 0.00 0.00 0.00 3 999.7
20260509231022 69 280 3.0 6.0 0.00 0.00 0.00 3 999.8